FW7490 Weather Reports


time (UTC)temp
F
wind
direction
speed
knots
gust
knots
rain 1hr
in
rain 24hr
in
rain mn
in
humidity
%
barometer
mb
20260906083036 69 238 0.0 0.0 0.00 0.12 0.00 78 1010.8
20260906081535 69 238 0.0 0.0 0.00 0.12 0.00 78 1010.8
20260906080034 69 238 0.0 0.0 0.00 0.12 0.00 78 1010.7
20260906074537 69 238 0.0 0.0 0.00 0.12 0.00 78 1010.4
20260906073033 69 238 0.0 0.0 0.00 0.12 0.00 78 1010.4
20260906071531 69 238 0.0 0.0 0.00 0.12 0.00 78 1010.4
20260906070029 69 238 0.0 0.0 0.00 0.12 0.00 77 1010.7
20260906064528 69 238 0.0 0.0 0.00 0.12 0.00 77 1010.9
20260906063030 70 238 0.0 0.0 0.00 0.12 0.00 77 1011.2
20260906061524 70 238 0.0 0.9 0.00 0.12 0.00 77 1011.2
20260906060023 70 238 0.0 0.0 0.00 0.12 0.00 77 1011.4
20260906054539 70 238 0.0 0.0 0.00 0.12 0.00 77 1011.3
20260906053021 70 238 0.0 0.0 0.00 0.12 0.00 76 1011.4
20260906051529 70 238 0.0 0.0 0.00 0.12 0.00 76 1011.5
20260906050028 71 238 0.0 0.0 0.00 0.12 0.00 76 1011.6
20260906044518 71 234 0.0 0.0 0.00 0.12 0.00 75 1011.5
20260906043016 71 234 0.0 0.0 0.00 0.12 0.00 74 1011.4
20260906041515 71 234 0.0 0.9 0.00 0.12 0.00 74 1011.2
20260906040015 71 234 0.0 0.9 0.00 0.12 0.12 73 1011.6
20260906034517 71 234 0.0 0.0 0.00 0.12 0.12 72 1011.7
20260906033013 72 234 0.0 0.0 0.00 0.12 0.12 71 1011.5
20260906031540 72 234 0.0 0.0 0.00 0.12 0.12 69 1011.5
20260906030012 72 234 0.0 0.0 0.00 0.12 0.12 67 1011.6
20260906024533 72 234 0.0 0.0 0.00 0.12 0.12 66 1011.4
20260906023011 73 234 0.0 0.0 0.00 0.12 0.12 65 1011.5
20260906021510 73 234 0.0 0.0 0.00 0.12 0.12 65 1011.5
20260906020010 73 234 0.0 0.0 0.00 0.12 0.12 65 1011.5
20260906014516 74 234 0.0 0.9 0.00 0.12 0.12 64 1011.3
20260906013009 74 235 0.0 0.0 0.00 0.12 0.12 64 1011.1
20260906011509 74 235 0.0 0.0 0.00 0.12 0.12 64 1010.6
20260906010020 75 235 0.0 0.9 0.00 0.12 0.12 64 1010.5
20260906004508 76 234 0.0 0.9 0.00 0.12 0.12 64 1010.6
20260906003007 76 235 0.0 0.9 0.00 0.12 0.12 64 1010.4
20260906001507 77 235 0.0 0.9 0.00 0.12 0.12 64 1010.3
20260906000011 78 235 0.0 0.0 0.00 0.12 0.12 64 1010.3
20260905234506 79 235 0.0 0.0 0.00 0.12 0.12 62 1010.2
20260905233006 80 246 0.0 0.9 0.00 0.12 0.12 61 1010.3
20260905231505 82 290 0.0 0.9 0.00 0.12 0.12 59 1010.1
20260905230007 84 264 0.0 0.0 0.00 0.12 0.12 55 1010.0
20260905224513 87 210 0.0 0.0 0.00 0.12 0.12 51 1010.2
20260905223003 88 210 0.0 1.7 0.00 0.12 0.12 47 1010.3
20260905221506 89 207 0.0 2.6 0.00 0.12 0.12 46 1010.2
20260905220002 88 205 1.7 4.3 0.00 0.12 0.12 45 1010.3
20260905214501 88 232 2.6 7.0 0.00 0.12 0.12 46 1010.5
20260905213103 89 184 1.7 4.3 0.00 0.12 0.12 44 1010.4
20260905211609 88 190 1.7 3.5 0.00 0.12 0.12 45 1010.6
20260905210104 88 167 0.9 4.3 0.00 0.12 0.12 46 1010.7
20260905204600 87 212 0.0 4.3 0.00 0.12 0.12 43 1010.7
20260905203101 87 238 0.9 5.2 0.00 0.12 0.12 45 1010.7
20260905201556 86 236 0.0 2.6 0.00 0.12 0.12 48 1010.9
20260905200101 86 153 0.0 3.5 0.00 0.12 0.12 49 1011.2
20260905194547 85 69 1.7 3.5 0.00 0.12 0.12 48 1011.5
20260905193046 85 205 1.7 4.3 0.00 0.12 0.12 49 1011.8
20260905191545 85 219 0.9 6.1 0.00 0.12 0.12 55 1011.9
20260905190042 84 90 0.9 7.8 0.00 0.12 0.12 54 1012.1
20260905184540 83 160 0.9 4.3 0.00 0.12 0.12 54 1012.3
20260905183039 81 132 0.0 3.5 0.00 0.12 0.12 60 1012.6
20260905181538 80 71 0.9 6.1 0.00 0.12 0.12 60 1012.9
20260905180038 79 215 1.7 5.2 0.00 0.12 0.12 63 1013.2
20260905174537 79 189 1.7 5.2 0.00 0.12 0.12 63 1013.4
20260905173054 78 84 0.0 7.0 0.00 0.12 0.12 67 1013.9
20260905171539 75 62 1.7 6.1 0.00 0.12 0.12 68 1014.1
20260905170034 74 132 0.9 4.3 0.12 0.12 0.12 69 1014.2
20260905164533 75 69 0.0 0.0 0.12 0.12 0.12 71 1014.1
20260905163032 77 173 0.9 5.2 0.12 0.12 0.12 68 1013.5
20260905161532 83 140 1.7 7.8 0.12 0.12 0.12 60 1013.3
20260905160034 87 323 0.9 4.3 0.00 0.00 0.00 56 1013.4
20260905154528 87 253 1.7 5.2 0.00 0.00 0.00 55 1013.1
20260905153025 86 313 0.9 3.5 0.00 0.00 0.00 57 1013.3
20260905151521 85 269 0.0 0.9 0.00 0.00 0.00 58 1013.0
20260905150020 84 305 1.7 5.2 0.00 0.00 0.00 59 1013.0
20260905144516 84 293 0.0 2.6 0.00 0.00 0.00 60 1013.2
20260905143014 83 219 0.9 3.5 0.00 0.00 0.00 60 1013.2
20260905141523 83 76 0.9 3.5 0.00 0.00 0.00 61 1013.5
20260905140008 81 130 0.0 1.7 0.00 0.00 0.00 64 1013.3
20260905134503 79 135 0.9 3.5 0.00 0.00 0.00 68 1013.4
20260905133100 77 159 0.0 2.6 0.00 0.00 0.00 73 1013.3
20260905131554 75 224 0.9 3.5 0.00 0.00 0.00 77 1013.6
20260905130051 73 34 0.0 0.0 0.00 0.00 0.00 79 1013.7
20260905124548 72 34 0.0 0.0 0.00 0.00 0.00 79 1013.9
20260905123044 70 34 0.0 0.0 0.00 0.00 0.00 79 1014.0
20260905121541 69 34 0.0 0.0 0.00 0.00 0.00 78 1013.9
20260905120038 69 34 0.0 0.0 0.00 0.00 0.00 78 1013.5
20260905114536 68 34 0.0 0.0 0.00 0.00 0.00 78 1013.3
20260905113034 68 34 0.0 0.0 0.00 0.00 0.00 78 1013.2
20260905111537 68 34 0.0 0.0 0.00 0.00 0.00 78 1012.9
20260905110033 68 34 0.0 0.0 0.00 0.00 0.00 78 1012.9
20260905104530 69 34 0.0 0.0 0.00 0.00 0.00 78 1012.7
20260905103029 69 34 0.0 0.0 0.00 0.00 0.00 78 1012.6
20260905101529 69 34 0.0 0.0 0.00 0.00 0.00 78 1012.5
20260905100026 69 34 0.0 0.0 0.00 0.00 0.00 78 1012.5
20260905094528 69 34 0.0 0.0 0.00 0.00 0.00 78 1012.6
20260905093026 69 34 0.0 0.0 0.00 0.00 0.00 78 1012.2
20260905091524 69 34 0.0 0.0 0.00 0.00 0.00 77 1012.3
20260905090022 69 34 0.0 0.0 0.00 0.00 0.00 77 1012.3
20260905084521 69 34 0.0 0.0 0.00 0.00 0.00 77 1012.4